Location: *
(38.9555°S, 57.3572°E)
Time: 01:43:58
(UTC+00:00)

Envisat - Pass Details

Date: 15 July 2020
Orbit: 764 x 766 km, 98.1° (Epoch: 06 August)

Event Time Altitude Azimuth Distance (km) Brightness Sun altitude
Rises 13:55:37 0° 161° (SSE) 3,271 5.9 -9.4°
Reaches altitude 10° 13:58:03 10° 154° (SSE) 2,336 5.1 -9.8°
Maximum altitude 14:02:59 45° 81° (E) 1,053 3.3 -10.7°
Drops below altitude 10° 14:07:51 10° 9° (N) 2,306 5.6 -11.6°
Sets 14:10:14 0° 2° (N) 3,224 6.4 -12.1°
